Regional Weather Roundup
Issued by NWS

Home | Current Version | Previous Version | Text Only | Print | Product List | Glossary On
Versions: 1 2 3 4 5 6 7 8 9 10 11 12 13 14 15 16 17 18 19 20 21 22 23 24 25 26 27
000
ASUS44 KBMX 222010
RWRAL

ALABAMA REGIONAL WEATHER ROUNDUP
NATIONAL WEATHER SERVICE BIRMINGHAM AL
300 PM CDT FRI SEP 22 2017

NOTE: "FAIR" INDICATES FEW OR NO CLOUDS BELOW 12,000 FEET
WITH NO SIGNIFICANT WEATHER AND/OR OBSTRUCTIONS TO VISIBILITY.

THE REMARK "TC" DENOTES TEMPERATURE IN DEGREES CELSIUS.

ALZ001>011-014-016>018-020-222100-
NORTH ALABAMA

CITY           SKY/WX    TMP DP  RH WIND       PRES   REMARKS
MUSCLE SHOALS  PTSUNNY   89  70  53 NE5       30.01F HX  94
HUNTSVILLE     MOSUNNY   91  71  51 W6        30.00F HX  97
DECATUR        SUNNY     87  70  56 E3        30.01F HX  92
HALEYVILLE     PTSUNNY   87  69  54 CALM      30.04F HX  91
GADSDEN        SUNNY     90  69  50 VRB3      30.00F HX  94
$$

ALZ012-013-022-023-030>036-040>044-222100-
WEST CENTRAL ALABAMA

CITY           SKY/WX    TMP DP  RH WIND       PRES   REMARKS
TUSCALOOSA     SUNNY     90  67  46 SE3       29.97F HX  93
DEMOPOLIS        N/A     91  61  36 N6        29.96F HX  91
$$

ALZ015-024>026-033>036-041>044-222100-
CENTRAL ALABAMA

CITY           SKY/WX    TMP DP  RH WIND       PRES   REMARKS
BIRMINGHAM     MOSUNNY   88  64  44 CALM      30.01F
MONTGOMERY     SUNNY     93  66  40 SE5       29.96F HX  96
SHELBY CO ARPT SUNNY     90  68  48 CALM      29.99F HX  94
MAXWELL AFB    MOSUNNY   89  67  48 NE6       29.96F HX  92
GREENVILLE     FAIR      89  66  46 E5        29.96F HX  91
SELMA          FAIR      91  70  49 N6        29.96F HX  97
PRATTVILLE     FAIR      89  69  51 E3        29.96F HX  93
BESSEMER       FAIR      88  69  53 CALM      30.00F HX  92
TALLADEGA      FAIR     N/A N/A N/A MISG      30.00F
PELL CITY      CLEAR     90  68  48 CALM      29.99F HX  93
MARION         MOCLDY    89  67  47 CALM      29.95F HX  92
SYLACAUGA      FAIR      89  71  54 CALM      30.00F HX  94
$$

ALZ019-021-028-029-037-038-045>048-222100-
EAST CENTRAL ALABAMA

CITY           SKY/WX    TMP DP  RH WIND       PRES   REMARKS
ANNISTON       PTSUNNY   89  67  47 NE8       29.99F HX  92
ALEXANDER CITY SUNNY     88  68  51 E6        30.00F HX  91
AUBURN         NOT AVBL
$$

ALZ051>064-222100-
SOUTHWEST ALABAMA

CITY           SKY/WX    TMP DP  RH WIND       PRES   REMARKS
MOBILE         PTSUNNY   89  70  53 NE5       29.95F HX  94
BROOKLEY FIELD SUNNY     89  75  63 SE8       29.95F HX  99
EVERGREEN      PTSUNNY   90  69  50 E6        29.96F HX  94
$$

ALZ049-050-065>069-222100-
SOUTHEAST ALABAMA

CITY           SKY/WX    TMP DP  RH WIND       PRES   REMARKS
DOTHAN         MOSUNNY   90  69  50 E6        30.00F HX  94
OZARK          MOSUNNY   88  69  53 NE7       29.96F HX  92
TROY           SUNNY     89  69  51 E7        29.98F HX  93
EUFAULA        FAIR      91  68  46 VRB5      29.96F HX  95
$$




USA.gov is the U.S. government's official web portal to all federal, state and local government web resources and services.